Weather History for Beaumont / Port Arthur, TX

Change the Weather History Date:

Tuesday, May 7, 2013

  Actual Average (KBPT) Record (KBPT)
Temperature  
Mean Temperature 72 °F 74 °F  
Max Temperature 84 °F 83 °F 95 °F (1905)
Min Temperature 59 °F 65 °F 47 °F (1992)
Degree Days  
Heating Degree Days 0 0  
Month to date heating degree days 0  
Since 1 July heating degree days 1400  
Cooling Degree Days 6 9  
Month to date cooling degree days 58  
Year to date cooling degree days 285  
Growing Degree Days 22 (Base 50)    
Moisture  
Dew Point 57 °F    
Average Humidity 62    
Maximum Humidity 100    
Minimum Humidity 32    
Precipitation  
Precipitation 0.00 in 0.18 in 2.06 in (1938)
Month to date precipitation 1.16  
Year to date precipitation 16.74  
Snow  
Snow 0.00 in 0.00 in 0.00 in ()
Month to date snowfall 0.0  
Since 1 July snowfall T  
Snow Depth -    
Sea Level Pressure  
Sea Level Pressure 30.03 in    
Wind  
Wind Speed 3 mph (SSW)    
Max Wind Speed 15 mph    
Max Gust Speed 20 mph    
Visibility 10 miles    
Events      
T = Trace of Precipitation, MM = Missing Value Source: NWS Daily Summary

Daily Weather History Graph

Daily Weather History Graph

Search for Another Location

Airport:

Trip Planner

Search our weather history database for the weather conditions in past years. The results will help you decide how hot, cold, wet, or windy it might be!

Date:

Astronomy

May. 07, 2013 Rise Set
Actual Time 6:28 AM CDT 7:58 PM CDT
Civil Twilight 6:02 AM CDT 8:24 PM CDT
Nautical Twilight 5:32 AM CDT 8:55 PM CDT
Astronomical Twilight 5:00 AM CDT 9:27 PM CDT
Moon 4:54 AM CDT (5/7) 6:05 PM CDT (5/7)
Length of Visible Light 14h 21m
Length of Day
13h 29m
Waning Crescent, 5% of the Moon is Illuminated
May 7
Waning Crescent
May 9
New
May 17
First Quarter
May 24
Full
May 31
Last Quarter

Hourly Weather History & Observations

Time (CDT) Temp. Heat Index Dew Point Humidity Pressure Visibility Wind Dir Wind Speed Gust Speed Precip Events Conditions
12:15 AM 61.3 °F - 59.2 °F 93% 30.01 in 10.0 mi Calm Calm - N/A   Clear
12:35 AM 60.6 °F - 59.9 °F 97% 30.02 in 10.0 mi SW 3.5 mph - N/A   Clear
12:55 AM 61.7 °F - 59.9 °F 94% 30.02 in 10.0 mi Calm Calm - N/A   Clear
1:35 AM - - - N/A% 30.02 in 10.0 mi SW 5.8 mph - N/A   Clear
2:35 AM 62.6 °F - 62.6 °F 100% 30.01 in 10.0 mi SW 3.5 mph - N/A   Clear
4:55 AM 60.8 °F - 60.8 °F 100% 30.02 in 10.0 mi Calm Calm - N/A   Clear
6:55 AM 59.2 °F - 59.2 °F 100% 30.05 in 7.0 mi Calm Calm - N/A   Clear
7:15 AM 60.6 °F - 60.6 °F 100% 30.05 in 7.0 mi Calm Calm - N/A   Clear
7:35 AM 62.6 °F - 62.6 °F 100% 30.05 in 10.0 mi Calm Calm - N/A   Clear
7:55 AM 64.9 °F - 62.4 °F 92% 30.06 in 10.0 mi WNW 3.5 mph - N/A   Clear
8:15 AM 64.4 °F - 62.6 °F 94% 30.06 in 10.0 mi Calm Calm - N/A   Clear
8:35 AM 65.8 °F - 61.7 °F 86% 30.07 in 10.0 mi Calm Calm - N/A   Clear
8:55 AM 68.7 °F - 59.4 °F 72% 30.07 in 10.0 mi Calm Calm - N/A   Clear
9:15 AM 70.7 °F - 58.3 °F 65% 30.07 in 10.0 mi NNW 3.5 mph - N/A   Clear
9:35 AM 72.5 °F - 58.1 °F 60% 30.07 in 10.0 mi Calm Calm - N/A   Clear
9:55 AM 73.9 °F - 56.3 °F 54% 30.07 in 10.0 mi Calm Calm - N/A   Clear
10:15 AM 75.9 °F - 55.2 °F 49% 30.07 in 10.0 mi Calm Calm - N/A   Clear
10:35 AM 76.1 °F - 54.3 °F 47% 30.07 in 10.0 mi Calm Calm - N/A   Clear
10:55 AM 77.5 °F - 54.0 °F 44% 30.07 in 10.0 mi West 5.8 mph - N/A   Clear
11:15 AM 78.3 °F - 53.4 °F 42% 30.07 in 10.0 mi Calm Calm - N/A   Clear
11:35 AM 79.0 °F - 53.6 °F 41% 30.07 in 10.0 mi Calm Calm - N/A   Clear
11:55 AM 79.9 °F - 54.0 °F 41% 30.07 in 10.0 mi Calm Calm - N/A   Clear
12:15 PM 80.6 °F 80.4 °F 54.5 °F 40% 30.06 in 10.0 mi SW 5.8 mph - N/A   Clear
12:35 PM 80.6 °F 80.3 °F 53.6 °F 39% 30.06 in 10.0 mi Calm Calm - N/A   Scattered Clouds
12:55 PM 82.2 °F 81.5 °F 54.7 °F 39% 30.05 in 10.0 mi South 8.1 mph - N/A   Scattered Clouds
1:15 PM 82.4 °F 81.4 °F 53.4 °F 37% 30.04 in 10.0 mi SW 4.6 mph - N/A   Clear
1:35 PM 82.2 °F - 52.7 °F 36% 30.03 in 10.0 mi SSW 4.6 mph - N/A   Clear
1:55 PM 82.6 °F - 51.1 °F 33% 30.03 in 10.0 mi SW 5.8 mph - N/A   Clear
2:15 PM 82.9 °F - 52.2 °F 34% 30.02 in 10.0 mi WNW 5.8 mph - N/A   Clear
2:35 PM 83.5 °F - 51.8 °F 33% 30.01 in 10.0 mi South 3.5 mph - N/A   Clear
2:55 PM 83.3 °F - 52.2 °F 34% 30.01 in 10.0 mi SSW 4.6 mph - N/A   Clear
3:35 PM 84.2 °F - 51.3 °F 32% 29.99 in 10.0 mi Calm Calm - N/A   Clear
3:55 PM 84.9 °F - 52.2 °F 32% 29.99 in 10.0 mi WSW 4.6 mph - N/A   Clear
4:15 PM 84.7 °F - 51.8 °F 32% 29.98 in 10.0 mi Calm Calm - N/A   Clear
4:35 PM 84.4 °F - 52.3 °F 33% 29.97 in 10.0 mi SSE 4.6 mph - N/A   Scattered Clouds
4:55 PM 84.2 °F - 52.5 °F 33% 29.97 in 10.0 mi Calm Calm - N/A   Clear
5:35 PM 82.9 °F 81.9 °F 54.5 °F 37% 29.97 in 10.0 mi SSE 5.8 mph - N/A   Scattered Clouds
5:55 PM 80.4 °F 80.5 °F 56.1 °F 43% 29.97 in 10.0 mi SSE 15.0 mph 19.6 mph N/A   Scattered Clouds
6:15 PM 79.7 °F - 56.5 °F 45% 29.97 in 10.0 mi South 11.5 mph - N/A   Scattered Clouds
6:35 PM 79.3 °F - 56.3 °F 45% 29.98 in 10.0 mi South 12.7 mph 17.3 mph N/A   Clear
6:55 PM 77.7 °F - 55.4 °F 46% 29.98 in 10.0 mi South 9.2 mph - N/A   Clear
7:15 PM 76.1 °F - 55.2 °F 48% 29.99 in 10.0 mi South 6.9 mph - N/A   Clear
7:35 PM 73.9 °F - 56.3 °F 54% 30.00 in 10.0 mi South 5.8 mph - N/A   Clear
7:55 PM 72.0 °F - 55.9 °F 57% 30.00 in 10.0 mi South 4.6 mph - N/A   Clear
8:15 PM 70.5 °F - 56.3 °F 61% 30.00 in 10.0 mi South 4.6 mph - N/A   Clear
8:35 PM 68.9 °F - 56.5 °F 65% 30.01 in 10.0 mi South 4.6 mph - N/A   Clear
8:55 PM 68.2 °F - 57.2 °F 68% 30.02 in 10.0 mi South 4.6 mph - N/A   Clear
9:15 PM 66.9 °F - 57.9 °F 73% 30.02 in 10.0 mi South 4.6 mph - N/A   Clear
9:35 PM 66.0 °F - 58.5 °F 77% 30.02 in 10.0 mi South 4.6 mph - N/A   Clear
9:55 PM 66.2 °F - 59.2 °F 78% 30.03 in 10.0 mi South 4.6 mph - N/A   Clear
10:15 PM 64.4 °F - 60.1 °F 86% 30.03 in 10.0 mi SE 4.6 mph - N/A   Clear
10:35 PM 64.6 °F - 61.2 °F 89% 30.03 in 10.0 mi North - - N/A   Clear
10:55 PM 64.0 °F - 63.0 °F 96% 30.04 in 10.0 mi South 4.6 mph - N/A   Clear
11:15 PM 64.2 °F - 63.5 °F 98% 30.04 in 10.0 mi South 4.6 mph - N/A   Clear
11:55 PM 63.3 °F - 63.3 °F 100% 30.04 in 10.0 mi South 4.6 mph - N/A   Clear